Year,Month,Day,Hour,Minute,Value (Times are PST for temperature in C)
2015,06,22,00,00,13.70
2015,06,22,00,01,13.70
2015,06,22,00,02,13.70
2015,06,22,00,03,13.70
2015,06,22,00,04,13.70
2015,06,22,00,05,13.70
2015,06,22,00,06,13.70
2015,06,22,00,07,13.70
2015,06,22,00,08,13.70
2015,06,22,00,09,13.70
2015,06,22,00,10,13.70
2015,06,22,00,11,13.60
2015,06,22,00,12,13.60
2015,06,22,00,13,13.60
2015,06,22,00,14,13.60
2015,06,22,00,15,13.60
2015,06,22,00,16,13.60
2015,06,22,00,17,13.50
2015,06,22,00,18,13.50
2015,06,22,00,19,13.50
2015,06,22,00,20,13.50
2015,06,22,00,21,13.40
2015,06,22,00,22,13.40
2015,06,22,00,23,13.40
2015,06,22,00,24,13.40
2015,06,22,00,25,13.40
2015,06,22,00,26,13.30
2015,06,22,00,27,13.30
2015,06,22,00,28,13.30
2015,06,22,00,29,13.30
2015,06,22,00,30,13.20
2015,06,22,00,31,13.20
2015,06,22,00,32,13.20
2015,06,22,00,33,13.20
2015,06,22,00,34,13.20
2015,06,22,00,35,13.20
2015,06,22,00,36,13.20
2015,06,22,00,37,13.10
2015,06,22,00,38,13.10
2015,06,22,00,39,13.10
2015,06,22,00,40,13.10
2015,06,22,00,41,13.10
2015,06,22,00,42,13.00
2015,06,22,00,43,13.00
2015,06,22,00,44,13.00
2015,06,22,00,45,12.90
2015,06,22,00,46,12.90
2015,06,22,00,47,12.90
2015,06,22,00,48,12.90
2015,06,22,00,49,12.90
2015,06,22,00,50,12.80
2015,06,22,00,51,12.80
2015,06,22,00,52,12.80
2015,06,22,00,53,12.80
2015,06,22,00,54,12.70
2015,06,22,00,55,12.70
2015,06,22,00,56,12.70
2015,06,22,00,57,12.80
2015,06,22,00,58,12.80
2015,06,22,00,59,12.80
2015,06,22,01,00,12.80
2015,06,22,01,01,12.80
2015,06,22,01,02,12.90
2015,06,22,01,03,12.90
2015,06,22,01,04,12.90
2015,06,22,01,05,12.90
2015,06,22,01,06,12.90
2015,06,22,01,07,12.90
2015,06,22,01,08,12.90
2015,06,22,01,09,12.90
2015,06,22,01,10,12.90
2015,06,22,01,11,12.80
2015,06,22,01,12,12.80
2015,06,22,01,13,12.80
2015,06,22,01,14,12.80
2015,06,22,01,15,12.80
2015,06,22,01,16,12.80
2015,06,22,01,17,12.80
2015,06,22,01,18,12.80
2015,06,22,01,19,12.80
2015,06,22,01,20,12.80
2015,06,22,01,21,12.80
2015,06,22,01,22,12.70
2015,06,22,01,23,12.70
2015,06,22,01,24,12.70
2015,06,22,01,25,12.70
2015,06,22,01,26,12.70
2015,06,22,01,27,12.70
2015,06,22,01,28,12.70
2015,06,22,01,29,12.60
2015,06,22,01,30,12.60
2015,06,22,01,31,12.60
2015,06,22,01,32,12.60
2015,06,22,01,33,12.60
2015,06,22,01,34,12.60
2015,06,22,01,35,12.60
2015,06,22,01,36,12.50
2015,06,22,01,37,12.50
2015,06,22,01,38,12.50
2015,06,22,01,39,12.50
2015,06,22,01,40,12.40
2015,06,22,01,41,12.40
2015,06,22,01,42,12.40
2015,06,22,01,43,12.40
2015,06,22,01,44,12.40
2015,06,22,01,45,12.40
2015,06,22,01,46,12.40
2015,06,22,01,47,12.30
2015,06,22,01,48,12.30
2015,06,22,01,49,12.30
2015,06,22,01,50,12.30
2015,06,22,01,51,12.30
2015,06,22,01,52,12.20
2015,06,22,01,53,12.20
2015,06,22,01,54,12.20
2015,06,22,01,55,12.20
2015,06,22,01,56,12.10
2015,06,22,01,57,12.10
2015,06,22,01,58,12.10
2015,06,22,01,59,12.10
2015,06,22,02,00,12.00
2015,06,22,02,01,12.00
2015,06,22,02,02,12.00
2015,06,22,02,03,12.00
2015,06,22,02,04,11.90
2015,06,22,02,05,11.90
2015,06,22,02,06,11.90
2015,06,22,02,07,11.90
2015,06,22,02,08,11.80
2015,06,22,02,09,11.80
2015,06,22,02,10,11.80
2015,06,22,02,11,11.80
2015,06,22,02,12,11.80
2015,06,22,02,13,11.80
2015,06,22,02,14,11.80
2015,06,22,02,15,11.70
2015,06,22,02,16,11.70
2015,06,22,02,17,11.70
2015,06,22,02,18,11.70
2015,06,22,02,19,11.70
2015,06,22,02,20,11.70
2015,06,22,02,21,11.70
2015,06,22,02,22,11.70
2015,06,22,02,23,11.70
2015,06,22,02,24,11.70
2015,06,22,02,25,11.70
2015,06,22,02,26,11.80
2015,06,22,02,27,11.80
2015,06,22,02,28,11.80
2015,06,22,02,29,11.80
2015,06,22,02,30,11.80
2015,06,22,02,31,11.80
2015,06,22,02,32,11.80
2015,06,22,02,33,11.80
2015,06,22,02,34,11.80
2015,06,22,02,35,11.80
2015,06,22,02,36,11.80
2015,06,22,02,37,11.70
2015,06,22,02,38,11.70
2015,06,22,02,39,11.70
2015,06,22,02,40,11.70
2015,06,22,02,41,11.70
2015,06,22,02,42,11.70
2015,06,22,02,43,11.70
2015,06,22,02,44,11.70
2015,06,22,02,45,11.70
2015,06,22,02,46,11.70
2015,06,22,02,47,11.60
2015,06,22,02,48,11.60
2015,06,22,02,49,11.60
2015,06,22,02,50,11.60
2015,06,22,02,51,11.60
2015,06,22,02,52,11.60
2015,06,22,02,53,11.50
2015,06,22,02,54,11.50
2015,06,22,02,55,11.50
2015,06,22,02,56,11.40
2015,06,22,02,57,11.40
2015,06,22,02,58,11.40
2015,06,22,02,59,11.40
2015,06,22,03,00,11.40
2015,06,22,03,01,11.40
2015,06,22,03,02,11.30
2015,06,22,03,03,11.30
2015,06,22,03,04,11.40
2015,06,22,03,05,11.40
2015,06,22,03,06,11.40
2015,06,22,03,07,11.40
2015,06,22,03,08,11.40
2015,06,22,03,09,11.40
2015,06,22,03,10,11.30
2015,06,22,03,11,11.30
2015,06,22,03,12,11.30
2015,06,22,03,13,11.30
2015,06,22,03,14,11.30
2015,06,22,03,15,11.30
2015,06,22,03,16,11.30
2015,06,22,03,17,11.30
2015,06,22,03,18,11.30
2015,06,22,03,19,11.20
2015,06,22,03,20,11.20
2015,06,22,03,21,11.20
2015,06,22,03,22,11.20
2015,06,22,03,23,11.20
2015,06,22,03,24,11.20
2015,06,22,03,25,11.20
2015,06,22,03,26,11.10
2015,06,22,03,27,11.10
2015,06,22,03,28,11.10
2015,06,22,03,29,11.10
2015,06,22,03,30,11.10
2015,06,22,03,31,11.10
2015,06,22,03,32,11.20
2015,06,22,03,33,11.20
2015,06,22,03,34,11.20
2015,06,22,03,35,11.20
2015,06,22,03,36,11.20
2015,06,22,03,37,11.30
2015,06,22,03,38,11.30
2015,06,22,03,39,11.30
2015,06,22,03,40,11.30
2015,06,22,03,41,11.30
2015,06,22,03,42,11.30
2015,06,22,03,43,11.30
2015,06,22,03,44,11.30
2015,06,22,03,45,11.40
2015,06,22,03,46,11.40
2015,06,22,03,47,11.40
2015,06,22,03,48,11.40
2015,06,22,03,49,11.40
2015,06,22,03,50,11.40
2015,06,22,03,51,11.40
2015,06,22,03,52,11.40
2015,06,22,03,53,11.40
2015,06,22,03,54,11.40
2015,06,22,03,55,11.30
2015,06,22,03,56,11.30
2015,06,22,03,57,11.30
2015,06,22,03,58,11.30
2015,06,22,03,59,11.30
2015,06,22,04,00,11.30
2015,06,22,04,01,11.30
2015,06,22,04,02,11.20
2015,06,22,04,03,11.20
2015,06,22,04,04,11.20
2015,06,22,04,05,11.20
2015,06,22,04,06,11.20
2015,06,22,04,07,11.10
2015,06,22,04,08,11.10
2015,06,22,04,09,11.10
2015,06,22,04,10,11.10
2015,06,22,04,11,11.10
2015,06,22,04,12,11.10
2015,06,22,04,13,11.10
2015,06,22,04,14,11.10
2015,06,22,04,15,11.20
2015,06,22,04,16,11.20
2015,06,22,04,17,11.20
2015,06,22,04,18,11.20
2015,06,22,04,19,11.20
2015,06,22,04,20,11.20
2015,06,22,04,21,11.20
2015,06,22,04,22,11.20
2015,06,22,04,23,11.20
2015,06,22,04,24,11.30
2015,06,22,04,25,11.30
2015,06,22,04,26,11.30
2015,06,22,04,27,11.30
2015,06,22,04,28,11.20
2015,06,22,04,29,11.20
2015,06,22,04,30,11.20
2015,06,22,04,31,11.20
2015,06,22,04,32,11.20
2015,06,22,04,33,11.10
2015,06,22,04,34,11.10
2015,06,22,04,35,11.10
2015,06,22,04,36,11.00
2015,06,22,04,37,11.00
2015,06,22,04,38,11.00
2015,06,22,04,39,11.00
2015,06,22,04,40,10.90
2015,06,22,04,41,10.90
2015,06,22,04,42,10.90
2015,06,22,04,43,10.90
2015,06,22,04,44,10.80
2015,06,22,04,45,10.80
2015,06,22,04,46,10.80
2015,06,22,04,47,10.70
2015,06,22,04,48,10.70
2015,06,22,04,49,10.70
2015,06,22,04,50,10.60
2015,06,22,04,51,10.60
2015,06,22,04,52,10.60
2015,06,22,04,53,10.60
2015,06,22,04,54,10.60
2015,06,22,04,55,10.60
2015,06,22,04,56,10.70
2015,06,22,04,57,10.70
2015,06,22,04,58,10.70
2015,06,22,04,59,10.70
2015,06,22,05,00,10.70
2015,06,22,05,01,10.70
2015,06,22,05,02,10.70
2015,06,22,05,03,10.70
2015,06,22,05,04,10.70
2015,06,22,05,05,10.70
2015,06,22,05,06,10.70
2015,06,22,05,07,10.60
2015,06,22,05,08,10.60
2015,06,22,05,09,10.60
2015,06,22,05,10,10.60
2015,06,22,05,11,10.60
2015,06,22,05,12,10.50
2015,06,22,05,13,10.50
2015,06,22,05,14,10.50
2015,06,22,05,15,10.40
2015,06,22,05,16,10.40
2015,06,22,05,17,10.40
2015,06,22,05,18,10.40
2015,06,22,05,19,10.40
2015,06,22,05,20,10.30
2015,06,22,05,21,10.30
2015,06,22,05,22,10.30
2015,06,22,05,23,10.30
2015,06,22,05,24,10.30
2015,06,22,05,25,10.30
2015,06,22,05,26,10.30
2015,06,22,05,27,10.30
2015,06,22,05,28,10.30
2015,06,22,05,29,10.30
2015,06,22,05,30,10.30
2015,06,22,05,31,10.30
2015,06,22,05,32,10.30
2015,06,22,05,33,10.30
2015,06,22,05,34,10.40
2015,06,22,05,35,10.40
2015,06,22,05,36,10.40
2015,06,22,05,37,10.40
2015,06,22,05,38,10.40
2015,06,22,05,39,10.50
2015,06,22,05,40,10.50
2015,06,22,05,41,10.50
2015,06,22,05,42,10.50
2015,06,22,05,43,10.50
2015,06,22,05,44,10.60
2015,06,22,05,45,10.60
2015,06,22,05,46,10.60
2015,06,22,05,47,10.60
2015,06,22,05,48,10.60
2015,06,22,05,49,10.60
2015,06,22,05,50,10.60
2015,06,22,05,51,10.50
2015,06,22,05,52,10.60
2015,06,22,05,53,10.60
2015,06,22,05,54,10.60
2015,06,22,05,55,10.60
2015,06,22,05,56,10.60
2015,06,22,05,57,10.60
2015,06,22,05,58,10.70
2015,06,22,05,59,10.70
2015,06,22,06,00,10.70
2015,06,22,06,01,10.80
2015,06,22,06,02,10.80
2015,06,22,06,03,10.90
2015,06,22,06,04,10.90
2015,06,22,06,05,11.00
2015,06,22,06,06,11.10
2015,06,22,06,07,11.10
2015,06,22,06,08,11.20
2015,06,22,06,09,11.20
2015,06,22,06,10,11.20
2015,06,22,06,11,11.20
2015,06,22,06,12,11.30
2015,06,22,06,13,11.30
2015,06,22,06,14,11.30
2015,06,22,06,15,11.40
2015,06,22,06,16,11.40
2015,06,22,06,17,11.50
2015,06,22,06,18,11.60
2015,06,22,06,19,11.60
2015,06,22,06,20,11.70
2015,06,22,06,21,11.80
2015,06,22,06,22,11.80
2015,06,22,06,23,11.80
2015,06,22,06,24,11.90
2015,06,22,06,25,11.90
2015,06,22,06,26,12.00
2015,06,22,06,27,12.00
2015,06,22,06,28,12.10
2015,06,22,06,29,12.10
2015,06,22,06,30,12.10
2015,06,22,06,31,12.20
2015,06,22,06,32,12.20
2015,06,22,06,33,12.30
2015,06,22,06,34,12.30
2015,06,22,06,35,12.30
2015,06,22,06,36,12.40
2015,06,22,06,37,12.40
2015,06,22,06,38,12.50
2015,06,22,06,39,12.60
2015,06,22,06,40,12.60
2015,06,22,06,41,12.70
2015,06,22,06,42,12.70
2015,06,22,06,43,12.80
2015,06,22,06,44,12.80
2015,06,22,06,45,12.90
2015,06,22,06,46,13.00
2015,06,22,06,47,13.10
2015,06,22,06,48,13.10
2015,06,22,06,49,13.20
2015,06,22,06,50,13.20
2015,06,22,06,51,13.30
2015,06,22,06,52,13.40
2015,06,22,06,53,13.40
2015,06,22,06,54,13.40
2015,06,22,06,55,13.50
2015,06,22,06,56,13.60
2015,06,22,06,57,13.60
2015,06,22,06,58,13.70
2015,06,22,06,59,13.70
2015,06,22,07,00,13.80
2015,06,22,07,01,13.80
2015,06,22,07,02,13.90
2015,06,22,07,03,14.00
2015,06,22,07,04,14.10
2015,06,22,07,05,14.20
2015,06,22,07,06,14.30
2015,06,22,07,07,14.40
2015,06,22,07,08,14.50
2015,06,22,07,09,14.50
2015,06,22,07,10,14.70
2015,06,22,07,11,14.70
2015,06,22,07,12,14.80
2015,06,22,07,13,14.80
2015,06,22,07,14,14.90
2015,06,22,07,15,15.00
2015,06,22,07,16,15.10
2015,06,22,07,17,15.20
2015,06,22,07,18,15.30
2015,06,22,07,19,15.40
2015,06,22,07,20,15.50
2015,06,22,07,21,15.60
2015,06,22,07,22,15.60
2015,06,22,07,23,15.70
2015,06,22,07,24,15.80
2015,06,22,07,25,15.80
2015,06,22,07,26,15.80
2015,06,22,07,27,15.90
2015,06,22,07,28,15.90
2015,06,22,07,29,16.00
2015,06,22,07,30,16.10
2015,06,22,07,31,16.20
2015,06,22,07,32,16.20
2015,06,22,07,33,16.30
2015,06,22,07,34,16.40
2015,06,22,07,35,16.50
2015,06,22,07,36,16.70
2015,06,22,07,37,16.80
2015,06,22,07,38,16.90
2015,06,22,07,39,17.00
2015,06,22,07,40,17.10
2015,06,22,07,41,17.20
2015,06,22,07,42,17.30
2015,06,22,07,43,17.30
2015,06,22,07,44,17.40
2015,06,22,07,45,17.50
2015,06,22,07,46,17.50
2015,06,22,07,47,17.60
2015,06,22,07,48,17.60
2015,06,22,07,49,17.70
2015,06,22,07,50,17.80
2015,06,22,07,51,17.80
2015,06,22,07,52,17.80
2015,06,22,07,53,17.90
2015,06,22,07,54,18.00
2015,06,22,07,55,18.10
2015,06,22,07,56,18.20
2015,06,22,07,57,18.20
2015,06,22,07,58,18.30
2015,06,22,07,59,18.30
2015,06,22,08,00,18.30
2015,06,22,08,01,18.40
2015,06,22,08,02,18.40
2015,06,22,08,03,18.40
2015,06,22,08,04,18.50
2015,06,22,08,05,18.50
2015,06,22,08,06,18.60
2015,06,22,08,07,18.60
2015,06,22,08,08,18.60
2015,06,22,08,09,18.70
2015,06,22,08,10,18.70
2015,06,22,08,11,18.70
2015,06,22,08,12,18.70
2015,06,22,08,13,18.70
2015,06,22,08,14,18.80
2015,06,22,08,15,18.80
2015,06,22,08,16,18.90
2015,06,22,08,17,18.90
2015,06,22,08,18,18.90
2015,06,22,08,19,18.90
2015,06,22,08,20,18.90
2015,06,22,08,21,18.90
2015,06,22,08,22,18.90
2015,06,22,08,23,18.90
2015,06,22,08,24,18.90
2015,06,22,08,25,19.00
2015,06,22,08,26,19.00
2015,06,22,08,27,19.00
2015,06,22,08,28,19.00
2015,06,22,08,29,19.00
2015,06,22,08,30,19.00
2015,06,22,08,31,18.90
2015,06,22,08,32,18.90
2015,06,22,08,33,18.80
2015,06,22,08,34,18.80
2015,06,22,08,35,18.70
2015,06,22,08,36,18.70
2015,06,22,08,37,18.70
2015,06,22,08,38,18.70
2015,06,22,08,39,18.70
2015,06,22,08,40,18.70
2015,06,22,08,41,18.70
2015,06,22,08,42,18.70
2015,06,22,08,43,18.80
2015,06,22,08,44,18.80
2015,06,22,08,45,18.80
2015,06,22,08,46,18.80
2015,06,22,08,47,18.80
2015,06,22,08,48,18.80
2015,06,22,08,49,18.90
2015,06,22,08,50,18.90
2015,06,22,08,51,18.90
2015,06,22,08,52,18.90
2015,06,22,08,53,19.00
2015,06,22,08,54,19.00
2015,06,22,08,55,19.10
2015,06,22,08,56,19.20
2015,06,22,08,57,19.20
2015,06,22,08,58,19.20
2015,06,22,08,59,19.20
2015,06,22,09,00,19.20
2015,06,22,09,01,19.20
2015,06,22,09,02,19.30
2015,06,22,09,03,19.30
2015,06,22,09,04,19.30
2015,06,22,09,05,19.30
2015,06,22,09,06,19.30
2015,06,22,09,07,19.30
2015,06,22,09,08,19.30
2015,06,22,09,09,19.30
2015,06,22,09,10,19.30
2015,06,22,09,11,19.40
2015,06,22,09,12,19.40
2015,06,22,09,13,19.40
2015,06,22,09,14,19.40
2015,06,22,09,15,19.40
2015,06,22,09,16,19.40
2015,06,22,09,17,19.40
2015,06,22,09,18,19.40
2015,06,22,09,19,19.50
2015,06,22,09,20,19.50
2015,06,22,09,21,19.60
2015,06,22,09,22,19.60
2015,06,22,09,23,19.50
2015,06,22,09,24,19.50
2015,06,22,09,25,19.40
2015,06,22,09,26,19.40
2015,06,22,09,27,19.40
2015,06,22,09,28,19.30
2015,06,22,09,29,19.30
2015,06,22,09,30,19.30
2015,06,22,09,31,19.30
2015,06,22,09,32,19.40
2015,06,22,09,33,19.40
2015,06,22,09,34,19.50
2015,06,22,09,35,19.60
2015,06,22,09,36,19.70
2015,06,22,09,37,19.80
2015,06,22,09,38,19.70
2015,06,22,09,39,19.70
2015,06,22,09,40,19.70
2015,06,22,09,41,19.60
2015,06,22,09,42,19.60
2015,06,22,09,43,19.60
2015,06,22,09,44,19.60
2015,06,22,09,45,19.60
2015,06,22,09,46,19.70
2015,06,22,09,47,19.70
2015,06,22,09,48,19.80
2015,06,22,09,49,19.80
2015,06,22,09,50,19.80
2015,06,22,09,51,19.90
2015,06,22,09,52,19.90
2015,06,22,09,53,19.80
2015,06,22,09,54,19.80
2015,06,22,09,55,19.70
2015,06,22,09,56,19.70
2015,06,22,09,57,19.70
2015,06,22,09,58,19.60
2015,06,22,09,59,19.60
2015,06,22,10,00,19.50
2015,06,22,10,01,19.50
2015,06,22,10,02,19.60
2015,06,22,10,03,19.60
2015,06,22,10,04,19.60
2015,06,22,10,05,19.60
2015,06,22,10,06,19.70
2015,06,22,10,07,19.80
2015,06,22,10,08,19.80
2015,06,22,10,09,19.80
2015,06,22,10,10,19.90
2015,06,22,10,11,19.90
2015,06,22,10,12,19.80
2015,06,22,10,13,19.80
2015,06,22,10,14,19.90
2015,06,22,10,15,19.90
2015,06,22,10,16,19.80
2015,06,22,10,17,19.80
2015,06,22,10,18,19.80
2015,06,22,10,19,19.80
2015,06,22,10,20,19.80
2015,06,22,10,21,19.80
2015,06,22,10,22,19.80
2015,06,22,10,23,19.80
2015,06,22,10,24,19.80
2015,06,22,10,25,19.80
2015,06,22,10,26,19.90
2015,06,22,10,27,19.90
2015,06,22,10,28,19.80
2015,06,22,10,29,19.80
2015,06,22,10,30,19.90
2015,06,22,10,31,20.00
2015,06,22,10,32,20.10
2015,06,22,10,33,20.10
2015,06,22,10,34,20.00
2015,06,22,10,35,20.00
2015,06,22,10,36,20.00
2015,06,22,10,37,20.00
2015,06,22,10,38,20.00
2015,06,22,10,39,19.90
2015,06,22,10,40,19.90
2015,06,22,10,41,20.00
2015,06,22,10,42,20.00
2015,06,22,10,43,20.10
2015,06,22,10,44,20.00
2015,06,22,10,45,20.00
2015,06,22,10,46,20.00
2015,06,22,10,47,20.00
2015,06,22,10,48,20.00
2015,06,22,10,49,19.90
2015,06,22,10,50,19.90
2015,06,22,10,51,20.00
2015,06,22,10,52,20.00
2015,06,22,10,53,20.10
2015,06,22,10,54,20.20
2015,06,22,10,55,20.20
2015,06,22,10,56,20.20
2015,06,22,10,57,20.30
2015,06,22,10,58,20.40
2015,06,22,10,59,20.40
2015,06,22,11,00,20.40
2015,06,22,11,01,20.40
2015,06,22,11,02,20.40
2015,06,22,11,03,20.40
2015,06,22,11,04,20.40
2015,06,22,11,05,20.40
2015,06,22,11,06,20.40
2015,06,22,11,07,20.50
2015,06,22,11,08,20.60
2015,06,22,11,09,20.60
2015,06,22,11,10,20.70
2015,06,22,11,11,20.70
2015,06,22,11,12,20.80
2015,06,22,11,13,20.80
2015,06,22,11,14,20.80
2015,06,22,11,15,20.80
2015,06,22,11,16,20.90
2015,06,22,11,17,20.90
2015,06,22,11,18,20.80
2015,06,22,11,19,20.80
2015,06,22,11,20,20.80
2015,06,22,11,21,20.80
2015,06,22,11,22,20.80
2015,06,22,11,23,20.80
2015,06,22,11,24,20.80
2015,06,22,11,25,20.80
2015,06,22,11,26,20.80
2015,06,22,11,27,20.80
2015,06,22,11,28,20.90
2015,06,22,11,29,21.00
2015,06,22,11,30,21.10
2015,06,22,11,31,21.20
2015,06,22,11,32,21.20
2015,06,22,11,33,21.20
2015,06,22,11,34,21.20
2015,06,22,11,35,21.20
2015,06,22,11,36,21.30
2015,06,22,11,37,21.30
2015,06,22,11,38,21.30
2015,06,22,11,39,21.30
2015,06,22,11,40,21.40
2015,06,22,11,41,21.40
2015,06,22,11,42,21.40
2015,06,22,11,43,21.40
2015,06,22,11,44,21.40
2015,06,22,11,45,21.40
2015,06,22,11,46,21.50
2015,06,22,11,47,21.50
2015,06,22,11,48,21.60
2015,06,22,11,49,21.60
2015,06,22,11,50,21.60
2015,06,22,11,51,21.60
2015,06,22,11,52,21.60
2015,06,22,11,53,21.60
2015,06,22,11,54,21.60
2015,06,22,11,55,21.70
2015,06,22,11,56,21.70
2015,06,22,11,57,21.80
2015,06,22,11,58,21.80
2015,06,22,11,59,21.80
2015,06,22,12,00,21.80
2015,06,22,12,01,21.80
2015,06,22,12,02,21.80
2015,06,22,12,03,21.70
2015,06,22,12,04,21.70
2015,06,22,12,05,21.60
2015,06,22,12,06,21.60
2015,06,22,12,07,21.50
2015,06,22,12,08,21.50
2015,06,22,12,09,21.40
2015,06,22,12,10,21.30
2015,06,22,12,11,21.30
2015,06,22,12,12,21.30
2015,06,22,12,13,21.30
2015,06,22,12,14,21.30
2015,06,22,12,15,21.30
2015,06,22,12,16,21.30
2015,06,22,12,17,21.30
2015,06,22,12,18,21.30
2015,06,22,12,19,21.30
2015,06,22,12,20,21.30
2015,06,22,12,21,21.40
2015,06,22,12,22,21.40
2015,06,22,12,23,21.50
2015,06,22,12,24,21.60
2015,06,22,12,25,21.70
2015,06,22,12,26,21.70
2015,06,22,12,27,21.70
2015,06,22,12,28,21.70
2015,06,22,12,29,21.70
2015,06,22,12,30,21.70
2015,06,22,12,31,21.70
2015,06,22,12,32,21.70
2015,06,22,12,33,21.70
2015,06,22,12,34,21.70
2015,06,22,12,35,21.80
2015,06,22,12,36,21.80
2015,06,22,12,37,21.80
2015,06,22,12,38,21.80
2015,06,22,12,39,21.80
2015,06,22,12,40,21.70
2015,06,22,12,41,21.70
2015,06,22,12,42,21.70
2015,06,22,12,43,21.70
2015,06,22,12,44,21.70
2015,06,22,12,45,21.70
2015,06,22,12,46,21.70
2015,06,22,12,47,21.80
2015,06,22,12,48,21.90
2015,06,22,12,49,21.90
2015,06,22,12,50,21.90
2015,06,22,12,51,22.00
2015,06,22,12,52,22.10
2015,06,22,12,53,22.10
2015,06,22,12,54,22.20
2015,06,22,12,55,22.20
2015,06,22,12,56,22.20
2015,06,22,12,57,22.20
2015,06,22,12,58,22.20
2015,06,22,12,59,22.30
2015,06,22,13,00,22.30
2015,06,22,13,01,22.40
2015,06,22,13,02,22.40
2015,06,22,13,03,22.50
2015,06,22,13,04,22.60
2015,06,22,13,05,22.70
2015,06,22,13,06,22.80
2015,06,22,13,07,22.90
2015,06,22,13,08,23.00
2015,06,22,13,09,23.00
2015,06,22,13,10,22.90
2015,06,22,13,11,23.00
2015,06,22,13,12,23.00
2015,06,22,13,13,22.90
2015,06,22,13,14,22.70
2015,06,22,13,15,22.60
2015,06,22,13,16,22.40
2015,06,22,13,17,22.30
2015,06,22,13,18,22.20
2015,06,22,13,19,22.10
2015,06,22,13,20,22.00
2015,06,22,13,21,21.90
2015,06,22,13,22,21.90
2015,06,22,13,23,21.80
2015,06,22,13,24,21.80
2015,06,22,13,25,21.80
2015,06,22,13,26,21.80
2015,06,22,13,27,21.80
2015,06,22,13,28,21.80
2015,06,22,13,29,21.80
2015,06,22,13,30,21.80
2015,06,22,13,31,21.80
2015,06,22,13,32,21.90
2015,06,22,13,33,21.90
2015,06,22,13,34,21.90
2015,06,22,13,35,21.90
2015,06,22,13,36,21.90
2015,06,22,13,37,21.90
2015,06,22,13,38,21.90
2015,06,22,13,39,22.00
2015,06,22,13,40,22.10
2015,06,22,13,41,22.20
2015,06,22,13,42,22.30
2015,06,22,13,43,22.40
2015,06,22,13,44,22.50
2015,06,22,13,45,22.60
2015,06,22,13,46,22.70
2015,06,22,13,47,22.80
2015,06,22,13,48,22.80
2015,06,22,13,49,22.80
2015,06,22,13,50,22.80
2015,06,22,13,51,22.80
2015,06,22,13,52,22.70
2015,06,22,13,53,22.70
2015,06,22,13,54,22.70
2015,06,22,13,55,22.70
2015,06,22,13,56,22.60
2015,06,22,13,57,22.50
2015,06,22,13,58,22.50
2015,06,22,13,59,22.50
2015,06,22,14,00,22.50
2015,06,22,14,01,22.50
2015,06,22,14,02,22.50
2015,06,22,14,03,22.50
2015,06,22,14,04,22.60
2015,06,22,14,05,22.70
2015,06,22,14,06,22.70
2015,06,22,14,07,22.80
2015,06,22,14,08,22.80
2015,06,22,14,09,22.90
2015,06,22,14,10,23.00
2015,06,22,14,11,23.10
2015,06,22,14,12,23.10
2015,06,22,14,13,23.10
2015,06,22,14,14,23.10
2015,06,22,14,15,23.00
2015,06,22,14,16,23.00
2015,06,22,14,17,23.00
2015,06,22,14,18,23.10
2015,06,22,14,19,23.10
2015,06,22,14,20,23.10
2015,06,22,14,21,23.10
2015,06,22,14,22,23.10
2015,06,22,14,23,23.10
2015,06,22,14,24,23.10
2015,06,22,14,25,23.10
2015,06,22,14,26,23.20
2015,06,22,14,27,23.20
2015,06,22,14,28,23.20
2015,06,22,14,29,23.20
2015,06,22,14,30,23.20
2015,06,22,14,31,23.20
2015,06,22,14,32,23.20
2015,06,22,14,33,23.30
2015,06,22,14,34,23.30
2015,06,22,14,35,23.20
2015,06,22,14,36,23.20
2015,06,22,14,37,23.20
2015,06,22,14,38,23.20
2015,06,22,14,39,23.20
2015,06,22,14,40,23.30
2015,06,22,14,41,23.30
2015,06,22,14,42,23.30
2015,06,22,14,43,23.30
2015,06,22,14,44,23.20
2015,06,22,14,45,23.10
2015,06,22,14,46,23.10
2015,06,22,14,47,23.10
2015,06,22,14,48,23.10
2015,06,22,14,49,23.00
2015,06,22,14,50,23.00
2015,06,22,14,51,22.90
2015,06,22,14,52,22.90
2015,06,22,14,53,22.90
2015,06,22,14,54,23.00
2015,06,22,14,55,23.10
2015,06,22,14,56,23.20
2015,06,22,14,57,23.20
2015,06,22,14,58,23.20
2015,06,22,14,59,23.10
2015,06,22,15,00,23.10
2015,06,22,15,01,23.10
2015,06,22,15,02,23.10
2015,06,22,15,03,23.10
2015,06,22,15,04,23.10
2015,06,22,15,05,23.10
2015,06,22,15,06,23.10
2015,06,22,15,07,23.10
2015,06,22,15,08,23.20
2015,06,22,15,09,23.20
2015,06,22,15,10,23.30
2015,06,22,15,11,23.30
2015,06,22,15,12,23.30
2015,06,22,15,13,23.40
2015,06,22,15,14,23.40
2015,06,22,15,15,23.30
2015,06,22,15,16,23.40
2015,06,22,15,17,23.40
2015,06,22,15,18,23.50
2015,06,22,15,19,23.60
2015,06,22,15,20,23.70
2015,06,22,15,21,23.70
2015,06,22,15,22,23.70
2015,06,22,15,23,23.70
2015,06,22,15,24,23.80
2015,06,22,15,25,23.80
2015,06,22,15,26,23.80
2015,06,22,15,27,23.80
2015,06,22,15,28,23.80
2015,06,22,15,29,23.90
2015,06,22,15,30,23.90
2015,06,22,15,31,24.00
2015,06,22,15,32,24.00
2015,06,22,15,33,24.00
2015,06,22,15,34,24.00
2015,06,22,15,35,24.00
2015,06,22,15,36,24.00
2015,06,22,15,37,24.00
2015,06,22,15,38,24.00
2015,06,22,15,39,24.00
2015,06,22,15,40,23.90
2015,06,22,15,41,23.80
2015,06,22,15,42,23.70
2015,06,22,15,43,23.60
2015,06,22,15,44,23.50
2015,06,22,15,45,23.50
2015,06,22,15,46,23.50
2015,06,22,15,47,23.50
2015,06,22,15,48,23.50
2015,06,22,15,49,23.60
2015,06,22,15,50,23.60
2015,06,22,15,51,23.70
2015,06,22,15,52,23.70
2015,06,22,15,53,23.70
2015,06,22,15,54,23.70
2015,06,22,15,55,23.80
2015,06,22,15,56,23.80
2015,06,22,15,57,23.80
2015,06,22,15,58,23.80
2015,06,22,15,59,23.80
2015,06,22,16,00,23.80
2015,06,22,16,01,23.80
2015,06,22,16,02,23.80
2015,06,22,16,03,23.80
2015,06,22,16,04,23.70
2015,06,22,16,05,23.70
2015,06,22,16,06,23.70
2015,06,22,16,07,23.80
2015,06,22,16,08,23.80
2015,06,22,16,09,23.70
2015,06,22,16,10,23.70
2015,06,22,16,11,23.70
2015,06,22,16,12,23.60
2015,06,22,16,13,23.60
2015,06,22,16,14,23.50
2015,06,22,16,15,23.40
2015,06,22,16,16,23.40
2015,06,22,16,17,23.40
2015,06,22,16,18,23.40
2015,06,22,16,19,23.40
2015,06,22,16,20,23.40
2015,06,22,16,21,23.50
2015,06,22,16,22,23.50
2015,06,22,16,23,23.60
2015,06,22,16,24,23.60
2015,06,22,16,25,23.60
2015,06,22,16,26,23.50
2015,06,22,16,27,23.50
2015,06,22,16,28,23.50
2015,06,22,16,29,23.50
2015,06,22,16,30,23.60
2015,06,22,16,31,23.60
2015,06,22,16,32,23.60
2015,06,22,16,33,23.50
2015,06,22,16,34,23.50
2015,06,22,16,35,23.50
2015,06,22,16,36,23.40
2015,06,22,16,37,23.50
2015,06,22,16,38,23.50
2015,06,22,16,39,23.50
2015,06,22,16,40,23.50
2015,06,22,16,41,23.50
2015,06,22,16,42,23.50
2015,06,22,16,43,23.60
2015,06,22,16,44,23.60
2015,06,22,16,45,23.60
2015,06,22,16,46,23.60
2015,06,22,16,47,23.60
2015,06,22,16,48,23.70
2015,06,22,16,49,23.70
2015,06,22,16,50,23.70
2015,06,22,16,51,23.60
2015,06,22,16,52,23.70
2015,06,22,16,53,23.70
2015,06,22,16,54,23.70
2015,06,22,16,55,23.70
2015,06,22,16,56,23.70
2015,06,22,16,57,23.70
2015,06,22,16,58,23.70
2015,06,22,16,59,23.70
2015,06,22,17,00,23.70
2015,06,22,17,01,23.70
2015,06,22,17,02,23.80
2015,06,22,17,03,23.90
2015,06,22,17,04,23.90
2015,06,22,17,05,23.90
2015,06,22,17,06,23.90
2015,06,22,17,07,23.90
2015,06,22,17,08,23.80
2015,06,22,17,09,23.80
2015,06,22,17,10,23.70
2015,06,22,17,11,23.50
2015,06,22,17,12,23.50
2015,06,22,17,13,23.40
2015,06,22,17,14,23.40
2015,06,22,17,15,23.40
2015,06,22,17,16,23.30
2015,06,22,17,17,23.40
2015,06,22,17,18,23.40
2015,06,22,17,19,23.40